{"data":{"norad_id":66896,"intl_designator":"2025-283U","name":"STARLINK-35791","alt_names":[],"object_type":"PAYLOAD","status":"ACTIVE","operator":null,"country":"US","launch_date":"2025-12-04","launch_site_code":"AFWTR","launch_vehicle":null,"mission":null,"orbit_class":"UNKNOWN","rcs_meters":null,"size_class":null,"mass_kg":null,"dimensions":null,"purposes":["comms"],"wikipedia_slug":null,"has_3d_model":false,"image_url":null,"decayed_at":null,"tle_current":{"epoch":"2026-09-20T05:05:46.595904Z","epoch_age_seconds":109202,"freshness":"FRESH","line1":"1 66896U 25283U   26263.21234486  .00008148  00000+0  25199-3 0  9993","line2":"2 66896  53.1587 198.6971 0001740  83.5558 276.5643 15.34403217 45656","mean_motion":15.34403217,"eccentricity":0.000174,"inclination_deg":53.1587,"raan_deg":198.6971,"arg_perigee_deg":83.5558,"mean_anomaly_deg":276.5643,"bstar":0.00025199,"rev_number":4565,"period_min":93.847561321947,"perigee_km":461.50337408378,"apogee_km":463.88398315994,"semimajor_km":6840.8306786219,"source":"CELESTRAK","updated_at":"2026-09-21T09:00:36.053154Z"}}}